• en Suisse
  • Liste des pays
  • À 7 jours
  • Température de l'eau
  • Carte satellitaire
  • Carte météo
  • Widgets météo
  • user-avatar
    Se connecter

    Météo par heure à Rodnichnoe

    Ce jour, 17 Octobre, Mercredi

    Heure Température Précipitation Vent Pression Humidité
    00:00 +4°C° 0 mm 3 m/s 741 mmHg 93%
    01:00 +4°C° 0 mm 3 m/s 740 mmHg 95%
    02:00 +4°C° 0 mm 3 m/s 740 mmHg 95%
    03:00 +4°C° 0 mm 3 m/s 740 mmHg 95%
    04:00 +4°C° 0 mm 3 m/s 739 mmHg 94%
    05:00 +4°C° 0 mm 3 m/s 739 mmHg 94%
    06:00 +4°C° 0 mm 3 m/s 739 mmHg 93%
    07:00 +5°C° 0 mm 3 m/s 738 mmHg 92%
    08:00 +6°C° 0 mm 4 m/s 738 mmHg 87%
    09:00 +7°C° 0 mm 4 m/s 738 mmHg 82%
    10:00 +9°C° 0 mm 5 m/s 738 mmHg 77%
    11:00 +10°C° 0 mm 5 m/s 737 mmHg 70%
    12:00 +11°C° 0 mm 6 m/s 737 mmHg 64%
    13:00 +14°C° 0 mm 6 m/s 737 mmHg 58%
    14:00 +13°C° 0 mm 6 m/s 737 mmHg 58%
    15:00 +13°C° 0 mm 6 m/s 736 mmHg 58%
    16:00 +13°C° 0 mm 6 m/s 736 mmHg 58%
    17:00 +11°C° 0 mm 6 m/s 737 mmHg 64%
    18:00 +10°C° 0 mm 6 m/s 737 mmHg 71%
    19:00 +8°C° 0 mm 6 m/s 737 mmHg 77%
    20:00 +8°C° 0 mm 6 m/s 738 mmHg 74%
    21:00 +8°C° 0 mm 6 m/s 738 mmHg 71%
    22:00 +7°C° 0 mm 6 m/s 739 mmHg 68%
    23:00 +5°C° 0 mm 6 m/s 739 mmHg 70%

    Demain, 18 Octobre, Jeudi

    Heure Température Précipitation Vent Pression Humidité
    00:00 +5°C° 0 mm 5 m/s 739 mmHg 72%
    01:00 +4°C° 0 mm 4 m/s 740 mmHg 74%
    02:00 +3°C° 0 mm 4 m/s 740 mmHg 76%
    03:00 +3°C° 0 mm 4 m/s 741 mmHg 77%
    04:00 +2°C° 0 mm 3 m/s 741 mmHg 78%
    05:00 +2°C° 0 mm 3 m/s 742 mmHg 80%
    06:00 +1°C° 0 mm 3 m/s 742 mmHg 83%
    07:00 +1°C° 0 mm 3 m/s 742 mmHg 86%
    08:00 +2°C° 0 mm 3 m/s 742 mmHg 79%
    09:00 +3°C° 0 mm 4 m/s 743 mmHg 73%
    10:00 +5°C° 0 mm 4 m/s 743 mmHg 66%
    11:00 +6°C° 0 mm 4 m/s 743 mmHg 61%
    12:00 +7°C° 0 mm 4 m/s 743 mmHg 56%
    13:00 +8°C° 0 mm 4 m/s 743 mmHg 50%
    14:00 +8°C° 0 mm 4 m/s 743 mmHg 50%
    15:00 +8°C° 0 mm 4 m/s 743 mmHg 51%
    16:00 +8°C° 0 mm 5 m/s 743 mmHg 51%
    17:00 +7°C° 0 mm 4 m/s 743 mmHg 56%
    18:00 +7°C° 0 mm 3 m/s 743 mmHg 61%
    19:00 +4°C° 0 mm 3 m/s 743 mmHg 66%
    20:00 +4°C° 0 mm 3 m/s 743 mmHg 68%
    21:00 +4°C° 0 mm 3 m/s 742 mmHg 70%
    22:00 +3°C° 0 mm 3 m/s 742 mmHg 72%
    23:00 +3°C° 0 mm 3 m/s 742 mmHg 73%

    Après-demain, 19 Octobre, Vendredi

    Heure Température Précipitation Vent Pression Humidité
    00:00 +3°C° 0 mm 3 m/s 742 mmHg 73%
    01:00 +2°C° 0 mm 3 m/s 742 mmHg 74%
    02:00 +2°C° 0 mm 3 m/s 742 mmHg 73%
    03:00 +2°C° 0 mm 3 m/s 742 mmHg 73%
    04:00 +2°C° 0 mm 3 m/s 742 mmHg 72%
    05:00 +3°C° 0 mm 3 m/s 742 mmHg 70%
    06:00 +3°C° 0 mm 4 m/s 742 mmHg 68%
    07:00 +4°C° 0 mm 4 m/s 742 mmHg 66%
    08:00 +5°C° 0 mm 5 m/s 742 mmHg 63%
    09:00 +6°C° 0 mm 5 m/s 742 mmHg 60%
    10:00 +7°C° 0 mm 6 m/s 742 mmHg 58%
    11:00 +8°C° 0 mm 6 m/s 741 mmHg 56%
    12:00 +10°C° 0 mm 6 m/s 741 mmHg 55%
    13:00 +11°C° 0 mm 7 m/s 741 mmHg 54%
    14:00 +11°C° 0 mm 6 m/s 741 mmHg 55%
    15:00 +11°C° 0 mm 6 m/s 741 mmHg 56%
    16:00 +11°C° 0 mm 6 m/s 740 mmHg 56%
    17:00 +10°C° 0 mm 5 m/s 740 mmHg 60%
    18:00 +9°C° 0 mm 5 m/s 740 mmHg 63%
    19:00 +8°C° 0 mm 5 m/s 740 mmHg 67%
    20:00 +8°C° 0 mm 5 m/s 740 mmHg 67%
    21:00 +8°C° 0 mm 5 m/s 740 mmHg 67%
    22:00 +7°C° 0 mm 5 m/s 740 mmHg 68%
    23:00 +7°C° 0 mm 5 m/s 740 mmHg 68%

    20 Octobre, Samedi

    Heure Température Précipitation Vent Pression Humidité
    00:00 +7°C° 0 mm 5 m/s 740 mmHg 68%
    01:00 +6°C° 0 mm 5 m/s 740 mmHg 68%
    02:00 +6°C° 0 mm 5 m/s 740 mmHg 66%
    03:00 +6°C° 0 mm 5 m/s 740 mmHg 65%
    04:00 +6°C° 0 mm 5 m/s 740 mmHg 64%
    05:00 +6°C° 0 mm 5 m/s 740 mmHg 62%
    06:00 +5°C° 0 mm 5 m/s 740 mmHg 60%
    07:00 +5°C° 0 mm 5 m/s 740 mmHg 59%
    08:00 +5°C° 0 mm 6 m/s 740 mmHg 54%
    09:00 +8°C° 0 mm 6 m/s 739 mmHg 49%
    10:00 +9°C° 0 mm 7 m/s 739 mmHg 45%
    11:00 +10°C° 0 mm 7 m/s 739 mmHg 42%
    12:00 +11°C° 0 mm 7 m/s 739 mmHg 39%
    13:00 +12°C° 0 mm 8 m/s 739 mmHg 36%
    14:00 +12°C° 0 mm 7 m/s 739 mmHg 38%
    15:00 +12°C° 0 mm 7 m/s 738 mmHg 40%
    16:00 +13°C° 0 mm 6 m/s 738 mmHg 43%
    17:00 +11°C° 0 mm 6 m/s 738 mmHg 47%
    18:00 +10°C° 0 mm 6 m/s 738 mmHg 51%
    19:00 +9°C° 0 mm 5 m/s 738 mmHg 54%
    20:00 +8°C° 0 mm 5 m/s 738 mmHg 58%
    21:00 +8°C° 0 mm 4 m/s 738 mmHg 61%
    22:00 +7°C° 0 mm 4 m/s 738 mmHg 64%
    23:00 +8°C° 0 mm 3 m/s 738 mmHg 69%

    21 Octobre, Dimanche

    Heure Température Précipitation Vent Pression Humidité
    00:00 +8°C° 0 mm 3 m/s 738 mmHg 74%
    01:00 +7°C° 0 mm 2 m/s 738 mmHg 79%
    02:00 +7°C° 0 mm 2 m/s 738 mmHg 82%
    03:00 +6°C° 0 mm 2 m/s 738 mmHg 86%
    04:00 +6°C° 0 mm 2 m/s 739 mmHg 89%
    05:00 +6°C° 0 mm 1 m/s 739 mmHg 89%
    06:00 +6°C° 0 mm 1 m/s 739 mmHg 89%
    07:00 +6°C° 0 mm 1 m/s 739 mmHg 90%
    08:00 +7°C° 0 mm 1 m/s 739 mmHg 83%
    09:00 +7°C° 0 mm 2 m/s 739 mmHg 76%
    10:00 +8°C° 0 mm 2 m/s 740 mmHg 69%
    11:00 +9°C° 0 mm 2 m/s 740 mmHg 64%
    12:00 +9°C° 0 mm 2 m/s 740 mmHg 59%
    13:00 +10°C° 0 mm 2 m/s 740 mmHg 54%
    14:00 +10°C° 0 mm 2 m/s 740 mmHg 54%
    15:00 +10°C° 0 mm 2 m/s 740 mmHg 53%
    16:00 +10°C° 0 mm 2 m/s 740 mmHg 53%
    17:00 +9°C° 0 mm 2 m/s 740 mmHg 58%
    18:00 +8°C° 0 mm 2 m/s 740 mmHg 62%
    19:00 +7°C° 0 mm 2 m/s 740 mmHg 66%
    20:00 +7°C° 0 mm 2 m/s 740 mmHg 68%
    21:00 +7°C° 0 mm 1 m/s 740 mmHg 70%
    22:00 +7°C° 0 mm 1 m/s 740 mmHg 72%
    23:00 +6°C° 0 mm 1 m/s 740 mmHg 73%

    22 Octobre, Lundi

    Heure Température Précipitation Vent Pression Humidité
    00:00 +6°C° 0 mm 1 m/s 740 mmHg 74%
    01:00 +6°C° 0 mm 1 m/s 740 mmHg 75%
    02:00 +6°C° 0 mm 1 m/s 740 mmHg 76%
    03:00 +5°C° 0 mm 1 m/s 740 mmHg 77%
    04:00 +5°C° 0 mm 1 m/s 741 mmHg 78%
    05:00 +5°C° 0 mm 1 m/s 741 mmHg 79%
    06:00 +4°C° 0 mm 1 m/s 740 mmHg 80%
    07:00 +4°C° 0 mm 1 m/s 740 mmHg 81%
    08:00 +5°C° 0 mm 1 m/s 741 mmHg 76%
    09:00 +6°C° 0 mm 1 m/s 741 mmHg 70%
    10:00 +8°C° 0 mm 1 m/s 741 mmHg 65%
    11:00 +8°C° 0 mm 1 m/s 741 mmHg 61%
    12:00 +9°C° 0 mm 1 m/s 741 mmHg 56%
    13:00 +10°C° 0 mm 1 m/s 741 mmHg 52%
    14:00 +10°C° 0 mm 1 m/s 740 mmHg 51%
    15:00 +10°C° 0 mm 1 m/s 740 mmHg 51%
    16:00 +10°C° 0 mm 1 m/s 740 mmHg 50%
    17:00 +9°C° 0 mm 1 m/s 740 mmHg 54%
    18:00 +7°C° 0 mm 0 m/s 740 mmHg 58%
    19:00 +6°C° 0 mm 0 m/s 740 mmHg 63%
    20:00 +6°C° 0 mm 0 m/s 740 mmHg 64%
    21:00 +6°C° 0 mm 1 m/s 740 mmHg 65%
    22:00 +6°C° 0 mm 1 m/s 740 mmHg 67%
    23:00 +6°C° 0 mm 1 m/s 740 mmHg 68%
    Voir plus